Last server records
Pro Nub

Map info

vee_phgi_headquarters
vee_phgi_headquarters ( Xtreme-Jumps) 26.10.2005
Xtreme-Jumps record Bibika - 02:35.24

KZ-Rush record famch - 03:06.23

Mapper  VeE

Pro-record QuaD - 03:12.10

Nub-record RoN` - 03:03.65 (71 cp / 1 gc)

Difficulty Easy

Length Middle

Download map vee_phgi_headquarters (1,27 MB)
Installation instructions

Map Installation Guide

  1. Download map archive vee_phgi_headquarters.zip
  2. Unzip the archive in any convenient folder
  3. Open cstrike folder, which is located in the place of Counter-Strike installation. In case of Steam version the path looks like Steam\steamapps\common\Half-Life
  4. Copy all files from the folder, where you unzipped the archive, to cstrike folder according to the following table (if your system asks about replacing files, choose Copy and Replace):
maps/vee_phgi_headquarters.bsp>>maps/vee_phgi_headquarters.bsp

Community records

# Player Time Difference Date  
1 famch 03:06.23   18.02.19
2 avivVv 04:26.08 -01:19.85 23.03.21
# Player Time Date Weapon
1 QuaD 03:12.10 02.05.19
2 Penguin 03:32.39 23.02.19
3 RoN` 03:44.20 16.05.17
4 dislike 03:47.27 23.02.17
5 blackfury 03:56.60 08.04.18
6 dipshit 04:04.39 12.03.18
7 porta 04:05.24 18.06.20
8 SL1kroL 04:06.30 04.03.21
9 xenge 04:11.08 28.07.17
10 lol 04:16.15 05.06.20
11 zepp_ 04:29.99 08.04.18
12 ddevil 04:34.29 11.06.18
13 bORN2MAKEPORN 04:37.12 02.05.19
14 Momonga 04:42.63 22.05.20
15 Leprikon_^ 04:59.59 04.03.21
16 DragKedja 05:01.58 21.07.19
17 trashsurfer2000 05:07.33 18.06.20
18 None 05:07.46 16.05.17
19 Roseanne_Park. 05:31.51 23.02.19
20 gf97 05:34.63 04.03.21
21 jaguarBR 05:44.13 02.05.19
22 NeffeX 05:53.36 08.04.18
23 Tihonya 06:05.07 24.12.17
24 Basterikus 06:22.67 12.03.18
25 trololo 06:28.49 02.05.19
26 snegg 06:39.72 12.03.18
27 Presive 06:43.32 18.06.20
28 zepp_ 06:45.46 27.03.17
29 reatzh 06:49.67 04.03.21
30 mistik 06:54.07 22.05.20
31 fantastikaaaaaaa 06:55.92 04.04.18
32 ANDRY 06:57.45 04.03.21
33 Ella4ka 07:00.40 04.03.21
34 shell 07:06.65 24.12.17
35 estrom 07:15.76 01.05.19
36 Shinzo 07:16.24 11.03.21
37 Mirnaya 07:44.03 04.03.21
38 rapier 07:53.07 16.04.21
39 Creep 07:53.30 16.05.17
40 abcdefg 08:02.00 14.10.19
41 inj3ct0r. 08:25.15 12.03.18
42 shraga 08:29.91 04.03.21
43 maronny 08:42.55 21.07.19
44 Edd 08:58.25 12.03.18
45 valikhhh 09:07.81 18.04.20
46 BarnabusWizardcock 09:18.36 06.11.19
47 fudd 09:26.24 04.03.21
48 tolyatti 10:06.38 16.05.17
49 DON_SIMON 10:25.13 24.07.19
50 Telegin 10:32.37 18.06.20
51 ChKzN! 10:34.56 23.02.19
52 chij 11:11.76 21.07.19
53 Nutella 12:14.25 18.06.20
54 avivVv 13:29.39 31.07.20
# Player Time Date Weapon CP GC
1 RoN` 03:03.65 16.05.17 71 1
2 SlasHeR 03:05.29 03.12.17 55 3
3 KUQi 03:08.14 16.05.17 51 2
4 xenge 03:29.29 16.05.17 70 10
5 dislike 03:32.58 23.02.17 62 9
6 DELf1n 03:35.25 16.05.17 56 15
7 Madaraxxx 03:35.34 11.06.18 64 12
8 Penguin 03:39.09 23.02.19 23 2
9 Roseanne_Park. 03:40.44 23.02.19 49 7
10 [WS] 03:40.45 18.06.20 71 11
11 smFDD 03:40.92 08.04.18 80 10
12 erdik 03:44.96 23.02.17 83 11
13 Stanley 03:46.52 02.05.19 107 10
14 -Gow- 03:46.64 16.05.17 71 9
15 Madarax 03:48.21 11.06.18 63 18
16 dipshit 03:55.42 12.03.18 73 21
17 wooo 03:59.32 23.02.19 72 19
18 Ella4ka 04:01.06 04.03.21 121 4
19 PlayFoRmE 04:03.68 01.05.19 85 18
20 Marshall 04:10.79 11.03.21 91 20
21 MiXiEEE 04:11.24 12.03.18 81 11
22 stopban 04:12.23 04.03.21 83 14
23 rck 04:13.21 11.04.17 101 12
24 incorrect_nick 04:21.04 17.02.17 99 15
25 lisM! 04:29.20 18.06.20 150 23
26 FunTopia 04:29.45 02.05.19 91 29
27 Clizma 04:29.92 08.04.18 75 27
28 Madcat 04:30.53 02.05.19 109 12
29 Gonaelannon 04:37.21 05.06.20 124 27
30 Cocaine 04:44.64 01.03.18 105 20
31 dgl_AIM!.Music.300fps 04:45.79 23.02.17 111 14
32 exodus 04:55.54 18.04.20 114 27
33 kIT 04:57.88 23.02.17 93 18
34 Zak 04:59.77 04.01.20 146 8
35 oRR 05:02.13 16.04.21 112 30
36 nokia 05:04.69 04.01.20 130 37
37 pe4enbki 05:05.76 16.05.17 99 41
38 inj3ct0r. 05:06.95 11.06.18 135 25
39 KOZA- 05:07.42 18.06.20 80 27
40 Shanta 05:08.44 31.07.20 117 18
41 htomka 05:09.67 08.04.18 117 24
42 theend 05:09.82 23.02.17 94 24
43 sook 05:10.79 06.04.17 98 26
44 Seth 05:12.36 18.06.20 102 17
45 Coffee2H 05:12.90 21.07.19 86 24
46 SneG^_^ 05:12.92 27.03.17 122 18
47 Player 05:13.93 16.05.17 112 27
48 GoodBeetle 05:13.99 16.05.17 86 33
49 Tihonya 05:15.13 24.12.17 100 22
50 None 05:21.92 16.05.17 62 30
51 dora_the_explorer 05:26.90 06.11.19 116 34
52 valentino 05:27.61 11.03.21 165 31
53 iskusstvennayanoch 05:30.19 17.01.20 144 27
54 z5N 05:30.46 27.03.17 108 27
55 _aiL 05:31.80 16.05.17 105 15
56 just_Player 05:33.51 27.03.17 86 28
57 Chaos_Dunk! 05:34.55 27.03.17 121 34
58 cadence 05:44.99 18.06.20 141 36
59 .ExpreSs_StresS. 05:45.01 16.05.17 113 39
60 NeffeX 05:45.29 08.04.18 131 34
61 KaHapeuKa.brn 05:46.80 21.07.19 97 45
62 HaMMa 05:49.00 22.05.20 77 25
63 `ShizaMaker 05:49.06 23.02.17 121 31
64 bORN2MAKEPORN 05:54.80 12.03.18 116 26
65 naark 05:54.96 18.06.20 124 38
66 Jmuriq 06:03.41 18.06.20 130 51
67 rang00 06:03.80 06.10.16 132 55
68 Pato_z_Vrboveho 06:04.43 18.06.20 121 40
69 Дашка_seXуашка 06:04.50 08.04.18 140 41
70 [RGA]censore 06:04.71 23.02.17 148 32
71 Zodiak 06:05.48 08.04.18 91 38
72 blackfury 06:05.61 08.04.18 110 45
73 gidozepam 06:05.92 21.07.19 118 27
74 Emilia 06:06.70 15.11.17 114 44
75 cum_shot_in_your_face 06:07.39 16.05.17 115 40
76 KaGeBe 06:12.94 01.05.19 139 33
77 Andris 06:13.06 18.04.20 145 40
78 kassu 06:14.31 27.03.17 107 36
79 dimaRIC 06:16.11 04.04.18 116 29
80 KaGeBe 06:16.70 10.12.17 126 42
81 999 06:17.24 04.04.18 137 40
82 space 06:18.11 12.03.18 96 37
83 BLATOSPHERAnosound 06:18.77 23.02.19 87 34
84 EnoT 06:20.69 22.05.20 71 41
85 OLLEVM 06:22.07 18.06.20 87 39
86 guz-.- 06:23.87 04.03.21 84 39
87 ohoho 06:24.39 03.09.18 125 31
88 bruh 06:26.99 22.05.20 137 33
89 ie1 06:27.86 23.02.19 101 39
90 mvxtip 06:28.27 02.05.19 160 42
91 samra 06:30.68 06.11.19 158 31
92 Sixel^ 06:30.69 23.02.17 159 43
93 covfefe 06:31.88 12.03.18 154 44
94 Fr1berg 06:39.05 04.04.18 170 40
95 h1co~ 06:43.98 26.08.17 131 55
96 Fastum_Gel 06:45.50 12.03.18 108 34
97 Aesthetic 06:47.23 04.03.21 125 41
98 RAT 06:48.57 21.07.19 114 36
99 BarnabusWizardcock 06:50.48 02.05.19 104 34
100 y4en1k_kocmonafta_D 06:53.68 16.05.17 185 65
101 Sh00ting-St4r--Jeffino 06:53.97 08.04.18 117 61
102 Fctrll 06:54.71 18.05.16 151 62
103 Harley 06:56.10 02.05.19 154 59
104 Mirnaya 06:56.37 04.03.21 89 34
105 Skudra 06:59.44 12.03.18 124 49
106 PoOo 06:59.78 18.05.16 147 53
107 SKY-RIM 07:02.22 12.03.18 99 69
108 serialchilla 07:06.54 16.04.21 188 43
109 Galaktus 07:09.89 06.11.19 142 35
110 shraga 07:16.43 22.05.20 95 48
111 Johnny_Dedd 07:17.18 05.06.20 136 42
112 Conquest__Okich_ 07:18.37 22.01.18 120 62
113 spwkzpe 07:20.69 01.03.18 93 66
114 AIR 07:37.39 31.07.20 117 73
115 Stimomadness 07:37.41 27.03.17 151 65
116 Kapernaum 07:40.72 16.05.17 133 60
117 g0su 07:42.78 18.04.20 135 62
118 ipasr 07:48.04 16.05.17 124 53
119 XEKA! 07:50.23 06.11.19 105 55
120 LoseSelection 07:58.27 11.03.21 147 61
121 AvAl0N 08:01.88 04.03.21 137 85
122 (1)WERANCE 08:10.78 27.03.17 148 40
123 Elon_Musk 08:15.58 18.04.20 88 66
124 Спинда 08:16.64 02.05.19 31 16
125 atopsgaming 08:17.45 05.06.20 167 83
126 tolyatti 08:19.67 18.05.16 151 76
127 MaiTeN 08:26.02 03.12.17 91 81
128 reyalP 08:30.88 23.02.17 123 85
129 DOOM 08:36.04 12.03.18 60 62
130 Koneko 08:38.19 24.12.17 49 44
131 diana_melison 08:56.18 23.02.19 132 79
132 .Smail~ 08:59.26 16.05.17 97 57
133 Radioactive 09:04.74 16.04.21 181 84
134 sadasd 09:09.99 02.05.19 72 80
135 `Player 09:21.38 18.06.20 132 49
136 drowa 09:24.30 08.04.18 156 75
137 iskatawrld 09:28.26 23.02.19 64 77
138 ЧУДНОЙ_h4rd 09:37.42 18.06.20 113 59
139 Hop 09:38.08 12.08.16 132 85
140 Vasheron 09:45.20 12.03.18 184 91
141 EBASHU 10:10.26 16.05.17 136 88
142 iko 10:25.86 22.05.20 123 59
143 Capsize 10:44.42 16.05.17 133 127
144 Kys 10:47.51 08.04.18 76 150
145 DeckeR 11:13.98 12.03.18 145 110
146 [email protected] 11:18.45 03.12.17 228 140
147 zxc. 11:53.26 21.07.19 117 140
148 WWW.xinjiang.com 12:06.01 10.05.16 77 77
149 jjjjjjjj 12:37.07 02.05.19 114 107
150 Deam0rfius 46:01.82 08.04.18 117 693
# Player Time Date Weapon CP GC
1 Ella4ka 04:52.37 04.03.21 134 17
# Player Time Date Weapon CP GC
1 Сtarblu 10:50.96 08.04.18 188 136

Other maps with same difficulty

Other maps from Xtreme-Jumps

Other maps from mapper VeE